KI5IZM-13 Weather Reports


Display with metric or nautical units.
time (UTC)temp
F
wind
direction
speed
MPH
gust
MPH
rain 1hr
in
rain 24hr
in
rain mn
in
humidity
%
barometer
mb
20260902064529 79 155 0.0 0.0 0.00 0.00 0.00 76 1016.1
20260902063017 79 155 0.0 0.0 0.00 0.00 0.00 75 1016.2
20260902061523 80 155 0.0 0.0 0.00 0.00 0.00 74 1016.3
20260902060033 80 97 0.0 1.0 0.00 0.00 0.00 73 1016.3
20260902054529 80 49 0.0 0.0 0.00 0.00 0.00 72 1016.0
20260902053015 81 49 0.0 0.0 0.00 0.00 0.00 71 1016.2
20260902051518 81 36 0.0 0.0 0.00 0.00 0.00 70 1016.1
20260902050022 82 36 0.0 0.0 0.00 0.00 0.00 69 1016.1
20260902044515 83 107 0.0 0.0 0.00 0.00 0.00 68 1016.1
20260902043013 83 117 1.0 9.0 0.00 0.00 0.00 67 1016.0
20260902041521 83 78 0.0 7.0 0.00 0.00 0.00 68 1016.0
20260902040019 83 113 1.0 4.0 0.00 0.00 0.00 69 1016.1
20260902034521 83 121 1.0 6.0 0.00 0.00 0.00 70 1016.2
20260902033004 83 140 0.0 0.0 0.00 0.00 0.00 71 1016.1
20260902031518 84 140 0.0 0.0 0.00 0.00 0.00 70 1016.0
20260902030015 85 140 0.0 0.0 0.00 0.00 0.00 69 1015.8
20260902024524 85 133 0.0 2.0 0.00 0.00 0.00 68 1015.6
20260902023024 85 162 0.0 0.0 0.00 0.00 0.00 68 1015.4
20260902021505 86 162 0.0 1.0 0.00 0.00 0.00 66 1015.3
20260902020013 86 161 0.0 2.0 0.00 0.00 0.00 64 1015.1
20260902014535 87 139 1.0 8.0 0.00 0.00 0.00 64 1014.9
20260902013026 87 136 0.0 4.0 0.00 0.00 0.00 63 1014.8
20260902011527 88 153 1.0 6.0 0.00 0.00 0.00 63 1014.9
20260902010014 88 138 1.0 6.0 0.00 0.00 0.00 62 1014.9
20260902004518 88 126 2.0 8.0 0.00 0.00 0.00 61 1014.6
20260902003018 89 169 4.0 13.0 0.00 0.00 0.00 59 1014.4
20260902001526 91 136 6.0 19.0 0.00 0.00 0.00 55 1014.2
20260902000037 95 92 6.0 14.0 0.00 0.00 0.00 45 1013.9
20260901234532 96 96 1.0 12.0 0.00 0.00 0.00 43 1013.4
20260901233019 96 118 3.0 10.0 0.00 0.00 0.00 43 1013.5
20260901231503 96 76 1.0 15.0 0.00 0.00 0.00 43 1013.5
20260901230010 97 148 2.0 15.0 0.00 0.00 0.00 41 1013.5
20260901224509 97 134 2.0 12.0 0.00 0.00 0.00 42 1013.5
20260901223015 97 32 1.0 14.0 0.00 0.00 0.00 42 1013.5
20260901221550 97 92 1.0 8.0 0.00 0.00 0.00 42 1013.7
20260901220011 97 57 2.0 12.0 0.00 0.00 0.00 43 1013.8
20260901214508 97 159 3.0 9.0 0.00 0.00 0.00 45 1014.0
20260901213012 97 73 2.0 11.0 0.00 0.00 0.00 46 1014.2
20260901211524 97 144 1.0 16.0 0.00 0.00 0.00 46 1014.3
20260901210025 97 121 3.0 9.0 0.00 0.00 0.00 45 1014.5
20260901204505 98 216 4.0 12.0 0.00 0.00 0.00 46 1014.7
20260901203010 97 67 2.0 7.0 0.00 0.00 0.00 46 1015.0
20260901201530 97 33 2.0 11.0 0.00 0.00 0.00 46 1015.1
20260901200020 97 94 6.0 13.0 0.00 0.00 0.00 47 1015.2
20260901194527 96 163 4.0 13.0 0.00 0.00 0.00 47 1015.3
20260901193004 96 142 3.0 11.0 0.00 0.00 0.00 48 1015.5
20260901191517 96 190 3.0 9.0 0.00 0.00 0.00 48 1015.5
20260901190020 96 130 4.0 12.0 0.00 0.00 0.00 49 1015.7
20260901184524 95 173 0.0 12.0 0.00 0.00 0.00 49 1015.9
20260901183028 95 229 2.0 12.0 0.00 0.00 0.00 49 1016.2
20260901181531 94 62 1.0 8.0 0.00 0.00 0.00 50 1016.4
20260901180014 94 49 0.0 6.0 0.00 0.00 0.00 53 1016.7
20260901174518 94 142 0.0 13.0 0.00 0.00 0.00 53 1017.0
20260901173024 93 50 2.0 9.0 0.00 0.00 0.00 54 1017.3
20260901171527 93 107 3.0 12.0 0.00 0.00 0.00 56 1017.7
20260901170031 91 180 0.0 11.0 0.00 0.00 0.00 56 1017.9
20260901164516 92 111 4.0 9.0 0.00 0.00 0.00 56 1018.1
20260901163020 91 61 2.0 11.0 0.00 0.00 0.00 59 1018.2
20260901161537 91 150 2.0 10.0 0.00 0.00 0.00 59 1018.2
20260901160037 91 131 2.0 9.0 0.00 0.00 0.00 61 1018.4
20260901154534 88 246 0.0 5.0 0.00 0.00 0.00 64 1018.3
20260901153018 88 123 0.0 2.0 0.00 0.00 0.00 66 1018.4
20260901151523 88 231 0.0 6.0 0.00 0.00 0.00 65 1018.4
20260901150030 88 122 0.0 3.0 0.00 0.00 0.00 69 1018.5
20260901144530 86 175 0.0 4.0 0.00 0.00 0.00 71 1018.5
20260901143015 84 123 0.0 3.0 0.00 0.00 0.00 74 1018.6
20260901141518 83 222 1.0 3.0 0.00 0.00 0.00 77 1018.6
20260901140005 81 153 0.0 2.0 0.00 0.00 0.00 81 1018.8
20260901134505 78 135 0.0 1.0 0.00 0.00 0.00 86 1018.7
20260901133012 75 243 0.0 0.0 0.00 0.00 0.00 87 1018.6
20260901131516 74 242 0.0 0.0 0.00 0.00 0.00 87 1018.5
20260901130030 74 242 0.0 0.0 0.00 0.00 0.00 88 1018.6
20260901124529 73 248 0.0 0.0 0.00 0.00 0.00 88 1018.3
20260901123008 73 239 0.0 0.0 0.00 0.00 0.00 88 1018.1
20260901121514 73 238 0.0 0.0 0.00 0.00 0.00 87 1018.0
20260901120021 73 183 0.0 0.0 0.00 0.00 0.00 87 1017.9
20260901114529 73 183 0.0 0.0 0.00 0.00 0.00 86 1017.7
20260901113044 73 183 0.0 0.0 0.00 0.00 0.00 86 1017.6
20260901111512 74 183 0.0 0.0 0.00 0.00 0.00 85 1017.5
20260901110018 74 183 0.0 0.0 0.00 0.00 0.00 85 1017.5
20260901104525 74 183 0.0 0.0 0.00 0.00 0.00 84 1017.5
20260901103025 74 183 0.0 0.0 0.00 0.00 0.00 83 1017.6
20260901101544 75 183 0.0 0.0 0.00 0.00 0.00 82 1017.4
20260901100014 75 183 0.0 0.0 0.00 0.00 0.00 81 1017.3
20260901094520 76 183 0.0 0.0 0.00 0.00 0.00 80 1017.3
20260901093026 76 183 0.0 0.0 0.00 0.00 0.00 79 1017.3
20260901091532 77 183 0.0 0.0 0.00 0.00 0.00 78 1017.3
20260901090034 77 183 0.0 0.0 0.00 0.00 0.00 77 1017.4
20260901084529 78 183 0.0 0.0 0.00 0.00 0.00 76 1017.5
20260901083027 79 183 0.0 0.0 0.00 0.00 0.00 75 1017.5
20260901081526 79 183 0.0 0.0 0.00 0.00 0.00 73 1017.5
20260901080032 80 183 0.0 0.0 0.00 0.00 0.00 72 1017.4
20260901074530 80 183 0.0 0.0 0.00 0.00 0.00 71 1017.3
20260901073004 81 233 0.0 4.0 0.00 0.00 0.00 70 1017.2
20260901071504 81 163 0.0 3.0 0.00 0.00 0.00 69 1017.3
20260901070004 81 136 0.0 2.0 0.00 0.00 0.00 68 1017.4